Regional Weather Roundup
Issued by NWS Newport/Morehead, NC

Current Version | Previous Version | Text Only | Print | Product List | Glossary On
Versions: 1 2 3 4 5 6 7 8 9 10 11 12 13 14 15 16 17 18 19 20 21 22 23 24 25 26 27 28 29 30 31 32 33 34 35 36 37 38 39 40 41 42 43 44 45 46 47 48 49 50
000 ASUS42 KMHX 291010 RWRMHX WEATHER ROUNDUP FOR EASTERN NORTH CAROLINA NATIONAL WEATHER SERVICE NEWPORT/MOREHEAD CITY NC 500 AM EST THU JAN 29 2015 NOTE: "FAIR" INDICATES FEW OR NO CLOUDS BELOW 12,000 FEET WITH NO SIGNIFICANT WEATHER AND/OR OBSTRUCTIONS TO VISIBILITY NCZ015>017-031-032-045>047-102-103-291100- NORTH COAST CITY SKY/WX TMP DP RH WIND PRES REMARKS EDENTON CLEAR 23 16 75 CALM 30.33S ELIZABETH CITY CLEAR 23 14 68 NW5 30.32F KITTY HAWK SUNNY 32 17 53 N7 30.29F MANTEO CLEAR 32 18 55 N6 30.31S $$ NCZ045>047-081-094-103-104-291100- CENTRAL COAST CITY SKY/WX TMP DP RH WIND PRES REMARKS FRISCO CLEAR 34 23 64 VRB6 30.30S SWANQUARTER NOT AVBL $$ NCZ095-097-098-100-101-291100- SOUTHERN COAST CITY SKY/WX TMP DP RH WIND PRES REMARKS BEAUFORT CLEAR 27 18 69 N5 30.32S CEDAR ISLAND NOT AVBL JACKSONVILLE CLEAR 24 19 81 NW3 30.33F PINEY ISLAND N/A N/A N/A N/A MISG 30.32S WILMINGTON FAIR 22 20 92 NE5 30.33S $$ NCZ011>013-027>030-043-044-078>080-089-090>093-098-291100- COASTAL PLAIN CITY SKY/WX TMP DP RH WIND PRES REMARKS AHOSKIE CLEAR 20 15 82 CALM 30.34S CLINTON CLEAR 23 22 96 CALM 30.35S ELIZABETHTOWN CLEAR 24 21 87 CALM 30.33S GOLDSBORO CLEAR 24 24 98 CALM 30.33S GREENVILLE CLEAR 21 19 93 CALM 30.34F HAVELOCK CLEAR 30 14 51 CALM 30.34R KENANSVILLE CLEAR 22 20 93 CALM 30.35F KINSTON CLEAR 22 18 85 CALM 30.34F NEW BERN CLEAR 27 16 63 CALM 30.34S RICHLANDS CLEAR 21 16 79 CALM 30.33F ROCKY MOUNT CLEAR 23 17 78 CALM 30.34F WASHINGTON CLEAR 24 17 74 CALM 30.33F WHITEVILLE CLEAR 25 21 87 CALM 30.33F $$ AMZ130-135-150-152-154-156-158-170-250-252-270-ANZ085-086-088-633-658-670-291100- MARINE OBSERVATIONS STATION/POSITION TIME TEMP WIND PRES WAVE SWELL AIR SEA DIR/SP/G HT/PER HT/PER (UTC) (F) (DEG/KT/KT) (MB) (FT/S) (FT/S) CHESAPEAKE LIGHT 0900 33 360/ 17/ 18 1026.7 64 E VA BEACH 1000 37 49 360/ 12/ 17 1025.0 6/12 5/12 DUCK 1000 33 41 330/ 10/ 14 1025.4 2 E DUCK 1000 42 N/A 5/13 2/13 10 NE DUCK 1000 45 N/A 6/12 2/12 OREGON INLET 1000 33 42 330/ 7/ 10 1026.1 13E OREGON INLT 1000 44 N/A 6/12 3/12 HATTERAS CG 1000 36 43 10/ 14/ 16 1026.1 DIAMOND BUOY 1000 40 71 350/ 16/ 21 1025.3 6/11 5/11 17 S OCRACOKE NOT AVBL CAPE LOOKOUT 0900 36 20/ 9/ 10 1026.6 BEAUFORT LAB 1000 32 47 20/ 5/ 7 1025.6 27 SE WRIGHTSVLE NOT AVBL 5 SE WRIGHTSVLE 0900 43 52 20/ 8/ 10 1026.6 225 S CAPE HAT 0923 56 72 350/ 16/ 21 1024.0 9/ 8 7/ 8 41 SE CHARLESTON 1000 51 67 30/ 10/ 14 1025.9 3/ 5 3/ 5 $$

USA.gov is the U.S. government's official web portal to all federal, state and local government web resources and services.